| time (UTC) | temp F | wind direction | speed MPH | gust MPH | rain 1hr in | rain 24hr in | rain mn in | humidity % | barometer mb |
| 20260502220119 | 63 | 156 | 5.0 | 14.0 | 0.00 | 0.00 | 0.00 | 28 | 1018.1 |
| 20260502214552 | 63 | 120 | 8.0 | 13.0 | 0.00 | 0.00 | 0.00 | 28 | 1017.9 |
| 20260502213049 | 64 | 139 | 5.0 | 9.0 | 0.00 | 0.00 | 0.00 | 28 | 1018.0 |
| 20260502211549 | 64 | 145 | 6.0 | 11.0 | 0.00 | 0.00 | 0.00 | 29 | 1017.7 |
| 20260502204558 | 64 | 172 | 5.0 | 13.0 | 0.00 | 0.00 | 0.00 | 29 | 1017.0 |
| 20260502203101 | 65 | 137 | 7.0 | 12.0 | 0.00 | 0.00 | 0.00 | 28 | 1017.1 |
| 20260502201548 | 65 | 128 | 5.0 | 10.0 | 0.00 | 0.00 | 0.00 | 28 | 1017.0 |
| 20260502200045 | 65 | 156 | 6.0 | 11.0 | 0.00 | 0.00 | 0.00 | 29 | 1016.9 |
| 20260502194603 | 65 | 122 | 5.0 | 8.0 | 0.00 | 0.00 | 0.00 | 29 | 1016.8 |
| 20260502193050 | 65 | 172 | 4.0 | 12.0 | 0.00 | 0.00 | 0.00 | 29 | 1016.9 |
| 20260502191551 | 65 | 168 | 5.0 | 9.0 | 0.00 | 0.00 | 0.00 | 30 | 1016.8 |
| 20260502190059 | 65 | 141 | 4.0 | 7.0 | 0.00 | 0.00 | 0.00 | 30 | 1016.7 |
| 20260502184702 | 65 | 131 | 4.0 | 9.0 | 0.00 | 0.00 | 0.00 | 30 | 1016.7 |
| 20260502183059 | 66 | 164 | 5.0 | 10.0 | 0.00 | 0.00 | 0.00 | 30 | 1016.8 |
| 20260502181553 | 66 | 139 | 5.0 | 10.0 | 0.00 | 0.00 | 0.00 | 30 | 1016.9 |
| 20260502163103 | 68 | 120 | 5.0 | 9.0 | 0.00 | 0.00 | 0.00 | 31 | 1017.4 |
| 20260502161546 | 68 | 134 | 7.0 | 11.0 | 0.00 | 0.00 | 0.00 | 32 | 1017.3 |
| 20260502151555 | 69 | 134 | 3.0 | 6.0 | 0.00 | 0.00 | 0.00 | 33 | 1017.6 |
| 20260502130103 | 72 | 109 | 9.0 | 14.0 | 0.00 | 0.00 | 0.00 | 31 | 1017.2 |
| 20260502123058 | 73 | 122 | 10.0 | 14.0 | 0.00 | 0.00 | 0.00 | 31 | 1016.8 |
| 20260502121548 | 73 | 122 | 6.0 | 12.0 | 0.00 | 0.00 | 0.00 | 32 | 1016.8 |
| 20260502114552 | 74 | 143 | 8.0 | 13.0 | 0.00 | 0.00 | 0.00 | 31 | 1016.5 |
| 20260502113048 | 74 | 146 | 8.0 | 10.0 | 0.00 | 0.00 | 0.00 | 31 | 1016.5 |
| 20260502111549 | 74 | 127 | 7.0 | 12.0 | 0.00 | 0.00 | 0.00 | 31 | 1016.2 |
| 20260502110048 | 74 | 133 | 7.0 | 16.0 | 0.00 | 0.00 | 0.00 | 31 | 1016.0 |
| 20260502104552 | 75 | 185 | 8.0 | 13.0 | 0.00 | 0.00 | 0.00 | 31 | 1015.9 |
| 20260502103048 | 75 | 146 | 7.0 | 14.0 | 0.00 | 0.00 | 0.00 | 31 | 1015.8 |
| 20260502101546 | 75 | 162 | 8.0 | 14.0 | 0.00 | 0.00 | 0.00 | 31 | 1015.6 |
| 20260502070053 | 81 | 124 | 7.0 | 14.0 | 0.00 | 0.00 | 0.00 | 29 | 1014.6 |
| 20260502064551 | 81 | 104 | 6.0 | 14.0 | 0.00 | 0.00 | 0.00 | 29 | 1014.6 |
| 20260502063048 | 80 | 110 | 5.0 | 13.0 | 0.00 | 0.00 | 0.00 | 30 | 1014.7 |
| 20260502061547 | 80 | 81 | 5.0 | 12.0 | 0.00 | 0.00 | 0.00 | 31 | 1014.9 |
| 20260502060053 | 79 | 112 | 6.0 | 14.0 | 0.00 | 0.00 | 0.00 | 31 | 1015.0 |
| 20260502054555 | 80 | 133 | 5.0 | 14.0 | 0.00 | 0.00 | 0.00 | 31 | 1015.1 |
| 20260502053050 | 80 | 112 | 8.0 | 18.0 | 0.00 | 0.00 | 0.00 | 31 | 1015.1 |
| 20260502051551 | 79 | 89 | 8.0 | 15.0 | 0.00 | 0.00 | 0.00 | 31 | 1015.1 |
| 20260502050051 | 80 | 122 | 7.0 | 16.0 | 0.00 | 0.00 | 0.00 | 31 | 1015.4 |
| 20260502044551 | 79 | 89 | 8.0 | 14.0 | 0.00 | 0.00 | 0.00 | 32 | 1015.7 |
| 20260502043059 | 78 | 157 | 7.0 | 16.0 | 0.00 | 0.00 | 0.00 | 33 | 1015.8 |
| 20260502041553 | 78 | 145 | 9.0 | 16.0 | 0.00 | 0.00 | 0.00 | 33 | 1015.8 |
| 20260502040054 | 78 | 114 | 9.0 | 17.0 | 0.00 | 0.00 | 0.00 | 33 | 1016.0 |
| 20260502034551 | 77 | 158 | 11.0 | 20.0 | 0.00 | 0.00 | 0.00 | 34 | 1016.2 |
| 20260502033047 | 77 | 156 | 10.0 | 18.0 | 0.00 | 0.00 | 0.00 | 34 | 1016.5 |
| 20260502031552 | 77 | 157 | 11.0 | 20.0 | 0.00 | 0.00 | 0.00 | 34 | 1016.7 |
| 20260502030051 | 76 | 144 | 12.0 | 20.0 | 0.00 | 0.00 | 0.00 | 34 | 1017.0 |
| 20260502024549 | 77 | 150 | 9.0 | 19.0 | 0.00 | 0.00 | 0.00 | 35 | 1017.3 |
| 20260502023048 | 76 | 155 | 10.0 | 20.0 | 0.00 | 0.00 | 0.00 | 36 | 1017.7 |
| 20260502021549 | 75 | 124 | 11.0 | 19.0 | 0.00 | 0.00 | 0.00 | 37 | 1017.9 |
| 20260502020051 | 75 | 172 | 11.0 | 22.0 | 0.00 | 0.00 | 0.00 | 37 | 1017.9 |
| 20260502014559 | 74 | 162 | 11.0 | 19.0 | 0.00 | 0.00 | 0.00 | 39 | 1018.1 |
| 20260502013054 | 74 | 88 | 11.0 | 19.0 | 0.00 | 0.00 | 0.00 | 40 | 1018.2 |
| 20260502011551 | 73 | 153 | 10.0 | 17.0 | 0.00 | 0.00 | 0.00 | 41 | 1018.1 |
| 20260502010050 | 74 | 122 | 9.0 | 16.0 | 0.00 | 0.00 | 0.00 | 40 | 1018.2 |
| 20260502004551 | 73 | 114 | 11.0 | 20.0 | 0.00 | 0.00 | 0.00 | 41 | 1017.9 |
| 20260502003046 | 72 | 147 | 9.0 | 19.0 | 0.00 | 0.00 | 0.00 | 42 | 1017.6 |
| 20260502001549 | 72 | 149 | 9.0 | 17.0 | 0.00 | 0.00 | 0.00 | 41 | 1017.3 |
| 20260502000055 | 72 | 119 | 12.0 | 19.0 | 0.00 | 0.00 | 0.00 | 42 | 1017.0 |
| 20260501234550 | 71 | 143 | 10.0 | 17.0 | 0.00 | 0.00 | 0.00 | 42 | 1017.0 |
| 20260501233050 | 71 | 167 | 12.0 | 20.0 | 0.00 | 0.00 | 0.00 | 42 | 1016.5 |
| 20260501231552 | 71 | 195 | 11.0 | 18.0 | 0.00 | 0.00 | 0.00 | 42 | 1016.3 |
| 20260501230045 | 71 | 185 | 10.0 | 18.0 | 0.00 | 0.00 | 0.00 | 42 | 1016.0 |
| 20260501224551 | 72 | 125 | 10.0 | 18.0 | 0.00 | 0.00 | 0.00 | 42 | 1015.8 |
| 20260501223046 | 72 | 114 | 9.0 | 17.0 | 0.00 | 0.00 | 0.00 | 42 | 1015.7 |
| 20260501221545 | 72 | 121 | 8.0 | 17.0 | 0.00 | 0.00 | 0.00 | 41 | 1015.7 |